| time (UTC) | temp F | wind direction | speed MPH | gust MPH | rain 1hr in | rain 24hr in | rain mn in | humidity % | barometer mb |
| 20260510093500 | 62 | 307 | 1.0 | 2.0 | 0.00 | 0.00 | 0.00 | 91 | 1009.3 |
| 20260510093000 | 62 | 298 | 1.0 | 2.0 | 0.00 | 0.00 | 0.00 | 91 | 1009.1 |
| 20260510092500 | 63 | 308 | 2.0 | 2.0 | 0.00 | 0.00 | 0.00 | 92 | 1008.9 |
| 20260510092000 | 63 | 295 | 2.0 | 2.0 | 0.00 | 0.00 | 0.00 | 92 | 1008.8 |
| 20260510091500 | 62 | 235 | 1.0 | 1.0 | 0.00 | 0.00 | 0.00 | 91 | 1008.8 |
| 20260510091000 | 62 | 169 | 1.0 | 1.0 | 0.00 | 0.00 | 0.00 | 91 | 1008.7 |
| 20260510090500 | 62 | 312 | 0.0 | 1.0 | 0.00 | 0.00 | 0.00 | 91 | 1008.6 |
| 20260510090000 | 62 | 220 | 1.0 | 2.0 | 0.00 | 0.00 | 0.00 | 91 | 1008.6 |
| 20260510085500 | 62 | 330 | 1.0 | 2.0 | 0.00 | 0.00 | 0.00 | 91 | 1008.6 |
| 20260510085000 | 62 | 327 | 2.0 | 2.0 | 0.00 | 0.00 | 0.00 | 90 | 1008.4 |
| 20260510084500 | 63 | 340 | 2.0 | 2.0 | 0.00 | 0.00 | 0.00 | 91 | 1008.2 |
| 20260510084000 | 63 | 3 | 1.0 | 2.0 | 0.00 | 0.00 | 0.00 | 91 | 1008.3 |
| 20260510083500 | 63 | 63 | 1.0 | 3.0 | 0.00 | 0.00 | 0.00 | 91 | 1008.3 |
| 20260510083000 | 63 | 7 | 2.0 | 3.0 | 0.00 | 0.00 | 0.00 | 91 | 1008.2 |
| 20260510082500 | 63 | 5 | 3.0 | 3.0 | 0.00 | 0.00 | 0.00 | 91 | 1008.1 |
| 20260510082000 | 63 | 56 | 2.0 | 2.0 | 0.00 | 0.00 | 0.00 | 91 | 1008.1 |
| 20260510081500 | 63 | 125 | 1.0 | 2.0 | 0.00 | 0.00 | 0.00 | 90 | 1008.0 |
| 20260510081000 | 63 | 149 | 0.0 | 2.0 | 0.00 | 0.00 | 0.00 | 90 | 1008.1 |
| 20260510080500 | 63 | 263 | 1.0 | 2.0 | 0.00 | 0.00 | 0.00 | 91 | 1008.2 |
| 20260510080000 | 63 | 284 | 1.0 | 2.0 | 0.00 | 0.00 | 0.00 | 90 | 1008.1 |
| 20260510075500 | 63 | 109 | 0.0 | 2.0 | 0.00 | 0.00 | 0.00 | 90 | 1007.9 |
| 20260510075000 | 63 | 160 | 2.0 | 2.0 | 0.00 | 0.00 | 0.00 | 90 | 1007.9 |
| 20260510074500 | 63 | 221 | 1.0 | 1.0 | 0.00 | 0.00 | 0.00 | 90 | 1007.9 |
| 20260510074000 | 63 | 33 | 0.0 | 1.0 | 0.00 | 0.00 | 0.00 | 90 | 1007.9 |
| 20260510073500 | 63 | 275 | 1.0 | 2.0 | 0.00 | 0.00 | 0.00 | 90 | 1008.1 |
| 20260510073000 | 63 | 268 | 0.0 | 2.0 | 0.00 | 0.00 | 0.00 | 90 | 1008.0 |
| 20260510072500 | 63 | 117 | 1.0 | 2.0 | 0.00 | 0.00 | 0.00 | 89 | 1008.0 |
| 20260510072000 | 63 | 142 | 1.0 | 1.0 | 0.00 | 0.00 | 0.00 | 89 | 1008.0 |
| 20260510071500 | 64 | 158 | 1.0 | 1.0 | 0.00 | 0.00 | 0.00 | 88 | 1008.1 |
| 20260510071000 | 64 | 178 | 1.0 | 2.0 | 0.00 | 0.00 | 0.00 | 88 | 1008.2 |
| 20260510070500 | 64 | 230 | 1.0 | 2.0 | 0.00 | 0.00 | 0.00 | 88 | 1008.2 |
| 20260510070000 | 65 | 289 | 1.0 | 2.0 | 0.00 | 0.00 | 0.00 | 87 | 1008.4 |
| 20260510065500 | 65 | 279 | 1.0 | 2.0 | 0.00 | 0.00 | 0.00 | 86 | 1008.3 |
| 20260510065000 | 65 | 292 | 2.0 | 2.0 | 0.00 | 0.00 | 0.00 | 85 | 1008.2 |
| 20260510064500 | 66 | 263 | 1.0 | 2.0 | 0.00 | 0.00 | 0.00 | 83 | 1008.2 |
| 20260510064000 | 66 | 220 | 1.0 | 2.0 | 0.00 | 0.00 | 0.00 | 83 | 1008.1 |
| 20260510063500 | 66 | 175 | 2.0 | 2.0 | 0.00 | 0.00 | 0.00 | 83 | 1008.2 |
| 20260510063000 | 66 | 117 | 1.0 | 1.0 | 0.00 | 0.00 | 0.00 | 83 | 1008.1 |
| 20260510062500 | 66 | 58 | 1.0 | 1.0 | 0.00 | 0.00 | 0.00 | 84 | 1008.2 |
| 20260510062000 | 66 | 161 | 0.0 | 1.0 | 0.00 | 0.00 | 0.00 | 84 | 1008.1 |
| 20260510061500 | 66 | 192 | 1.0 | 2.0 | 0.00 | 0.00 | 0.00 | 83 | 1008.2 |
| 20260510061000 | 66 | 199 | 1.0 | 3.0 | 0.00 | 0.00 | 0.00 | 83 | 1008.2 |
| 20260510060500 | 66 | 200 | 2.0 | 3.0 | 0.00 | 0.00 | 0.00 | 82 | 1008.1 |
| 20260510060000 | 66 | 207 | 2.0 | 4.0 | 0.00 | 0.00 | 0.00 | 82 | 1008.1 |
| 20260510055500 | 66 | 234 | 2.0 | 4.0 | 0.00 | 0.00 | 0.00 | 83 | 1008.0 |
| 20260510055000 | 66 | 189 | 2.0 | 3.0 | 0.00 | 0.00 | 0.00 | 83 | 1007.9 |
| 20260510054500 | 66 | 177 | 2.0 | 3.0 | 0.00 | 0.00 | 0.00 | 82 | 1007.9 |
| 20260510054000 | 66 | 191 | 2.0 | 3.0 | 0.00 | 0.00 | 0.00 | 81 | 1007.8 |
| 20260510053500 | 67 | 182 | 3.0 | 3.0 | 0.00 | 0.00 | 0.00 | 81 | 1007.8 |
| 20260510053000 | 67 | 196 | 2.0 | 3.0 | 0.00 | 0.00 | 0.00 | 80 | 1007.8 |
| 20260510052500 | 67 | 193 | 2.0 | 2.0 | 0.00 | 0.00 | 0.00 | 80 | 1008.0 |
| 20260510052000 | 67 | 187 | 2.0 | 2.0 | 0.00 | 0.00 | 0.00 | 79 | 1007.9 |
| 20260510051500 | 67 | 207 | 1.0 | 3.0 | 0.00 | 0.00 | 0.00 | 79 | 1007.9 |
| 20260510051000 | 67 | 219 | 2.0 | 3.0 | 0.00 | 0.00 | 0.00 | 79 | 1007.9 |
| 20260510050500 | 67 | 217 | 3.0 | 3.0 | 0.00 | 0.00 | 0.00 | 80 | 1007.9 |
| 20260510050000 | 67 | 202 | 2.0 | 3.0 | 0.00 | 0.00 | 0.00 | 81 | 1007.8 |
| 20260510045500 | 67 | 187 | 2.0 | 3.0 | 0.00 | 0.00 | 0.00 | 80 | 1007.8 |
| 20260510045000 | 68 | 204 | 2.0 | 3.0 | 0.00 | 0.00 | 0.00 | 79 | 1007.8 |
| 20260510044500 | 67 | 210 | 2.0 | 3.0 | 0.00 | 0.00 | 0.00 | 81 | 1007.9 |
| 20260510044000 | 68 | 190 | 3.0 | 3.0 | 0.00 | 0.00 | 0.00 | 80 | 1007.8 |
| 20260510043500 | 68 | 200 | 2.0 | 3.0 | 0.00 | 0.00 | 0.00 | 79 | 1007.8 |
| 20260510043000 | 68 | 167 | 2.0 | 3.0 | 0.00 | 0.00 | 0.00 | 80 | 1007.8 |
| 20260510042500 | 68 | 183 | 2.0 | 3.0 | 0.00 | 0.00 | 0.00 | 80 | 1007.9 |
| 20260510042000 | 68 | 184 | 1.0 | 3.0 | 0.00 | 0.00 | 0.00 | 80 | 1007.8 |
| 20260510041500 | 68 | 165 | 2.0 | 3.0 | 0.00 | 0.00 | 0.00 | 80 | 1007.8 |
| 20260510041000 | 68 | 170 | 2.0 | 3.0 | 0.00 | 0.00 | 0.00 | 80 | 1007.8 |
| 20260510040500 | 68 | 185 | 2.0 | 4.0 | 0.00 | 0.00 | 0.00 | 80 | 1007.8 |
| 20260510040000 | 68 | 194 | 3.0 | 4.0 | 0.00 | 0.00 | 0.00 | 80 | 1007.8 |
| 20260510035500 | 68 | 200 | 3.0 | 3.0 | 0.00 | 0.00 | 0.00 | 79 | 1007.8 |
| 20260510035000 | 69 | 206 | 3.0 | 3.0 | 0.00 | 0.00 | 0.00 | 78 | 1007.8 |
| 20260510034500 | 69 | 198 | 2.0 | 4.0 | 0.00 | 0.00 | 0.00 | 77 | 1007.7 |
| 20260510034000 | 70 | 164 | 2.0 | 4.0 | 0.00 | 0.00 | 0.00 | 75 | 1007.7 |
| 20260510033500 | 69 | 183 | 3.0 | 4.0 | 0.00 | 0.00 | 0.00 | 76 | 1007.8 |
| 20260510033000 | 70 | 168 | 2.0 | 4.0 | 0.00 | 0.00 | 0.00 | 76 | 1007.8 |
| 20260510032500 | 70 | 170 | 3.0 | 4.0 | 0.00 | 0.00 | 0.00 | 76 | 1007.8 |
| 20260510032000 | 70 | 175 | 2.0 | 5.0 | 0.00 | 0.00 | 0.00 | 76 | 1007.8 |
| 20260510031500 | 70 | 163 | 2.0 | 5.0 | 0.00 | 0.00 | 0.00 | 76 | 1007.7 |
| 20260510031000 | 71 | 161 | 3.0 | 5.0 | 0.00 | 0.00 | 0.00 | 75 | 1007.7 |
| 20260510030500 | 71 | 168 | 4.0 | 5.0 | 0.00 | 0.00 | 0.00 | 75 | 1007.7 |
| 20260510030000 | 71 | 185 | 4.0 | 5.0 | 0.00 | 0.00 | 0.00 | 75 | 1007.6 |
| 20260510025500 | 71 | 179 | 4.0 | 5.0 | 0.00 | 0.00 | 0.00 | 75 | 1007.6 |
| 20260510025000 | 71 | 190 | 5.0 | 5.0 | 0.00 | 0.00 | 0.00 | 75 | 1007.6 |
| 20260510024500 | 72 | 194 | 4.0 | 8.0 | 0.00 | 0.00 | 0.00 | 74 | 1007.6 |
| 20260510024001 | 72 | 198 | 3.0 | 9.0 | 0.00 | 0.00 | 0.00 | 72 | 1007.6 |
| 20260510023500 | 73 | 171 | 6.0 | 9.0 | 0.00 | 0.00 | 0.00 | 71 | 1007.5 |
| 20260510023000 | 73 | 181 | 5.0 | 8.0 | 0.00 | 0.00 | 0.00 | 72 | 1007.3 |
| 20260510022500 | 72 | 175 | 6.0 | 7.0 | 0.00 | 0.00 | 0.00 | 73 | 1007.3 |
| 20260510022000 | 72 | 149 | 4.0 | 7.0 | 0.00 | 0.00 | 0.00 | 74 | 1007.2 |
| 20260510021500 | 72 | 143 | 3.0 | 6.0 | 0.00 | 0.00 | 0.00 | 74 | 1007.2 |
| 20260510021000 | 71 | 151 | 2.0 | 3.0 | 0.00 | 0.00 | 0.00 | 79 | 1007.1 |
| 20260510020500 | 71 | 180 | 2.0 | 3.0 | 0.00 | 0.00 | 0.00 | 78 | 1007.1 |
| 20260510020000 | 71 | 175 | 2.0 | 3.0 | 0.00 | 0.00 | 0.00 | 78 | 1007.0 |
| 20260510015500 | 72 | 166 | 2.0 | 2.0 | 0.00 | 0.00 | 0.00 | 78 | 1007.0 |
| 20260510015000 | 71 | 153 | 1.0 | 2.0 | 0.00 | 0.00 | 0.00 | 78 | 1007.0 |
| 20260510014500 | 72 | 157 | 1.0 | 3.0 | 0.00 | 0.00 | 0.00 | 78 | 1007.0 |
| 20260510014000 | 72 | 158 | 2.0 | 3.0 | 0.00 | 0.00 | 0.00 | 77 | 1007.0 |
| 20260510013500 | 73 | 155 | 3.0 | 3.0 | 0.00 | 0.00 | 0.00 | 75 | 1006.9 |
| 20260510013000 | 73 | 154 | 3.0 | 3.0 | 0.00 | 0.00 | 0.00 | 72 | 1006.9 |
| 20260510012500 | 73 | 178 | 2.0 | 2.0 | 0.00 | 0.00 | 0.00 | 70 | 1006.8 |
| 20260510012000 | 74 | 199 | 2.0 | 3.0 | 0.00 | 0.00 | 0.00 | 72 | 1006.8 |
| 20260510011500 | 74 | 181 | 2.0 | 4.0 | 0.00 | 0.00 | 0.00 | 70 | 1006.7 |
| 20260510011000 | 74 | 195 | 2.0 | 4.0 | 0.00 | 0.00 | 0.00 | 69 | 1006.7 |
| 20260510010500 | 75 | 147 | 4.0 | 4.0 | 0.00 | 0.00 | 0.00 | 67 | 1006.6 |
| 20260510010000 | 75 | 161 | 3.0 | 6.0 | 0.00 | 0.00 | 0.00 | 65 | 1006.6 |
| 20260510005500 | 75 | 156 | 3.0 | 6.0 | 0.00 | 0.00 | 0.00 | 64 | 1006.6 |
| 20260510005000 | 75 | 171 | 3.0 | 5.0 | 0.00 | 0.00 | 0.00 | 68 | 1006.6 |
| 20260510004500 | 76 | 186 | 4.0 | 4.0 | 0.00 | 0.00 | 0.00 | 72 | 1006.5 |
| 20260510004000 | 76 | 176 | 3.0 | 3.0 | 0.00 | 0.00 | 0.00 | 71 | 1006.5 |
| 20260510003500 | 77 | 147 | 1.0 | 3.0 | 0.00 | 0.00 | 0.00 | 65 | 1006.5 |
| 20260510003000 | 77 | 102 | 2.0 | 3.0 | 0.00 | 0.00 | 0.00 | 62 | 1006.4 |
| 20260510002500 | 78 | 112 | 2.0 | 2.0 | 0.00 | 0.00 | 0.00 | 63 | 1006.5 |
| 20260510002000 | 78 | 84 | 2.0 | 2.0 | 0.00 | 0.00 | 0.00 | 61 | 1006.4 |
| 20260510001500 | 79 | 79 | 2.0 | 3.0 | 0.00 | 0.00 | 0.00 | 58 | 1006.4 |
| 20260510001000 | 79 | 103 | 2.0 | 3.0 | 0.00 | 0.00 | 0.00 | 55 | 1006.5 |
| 20260510000500 | 79 | 121 | 2.0 | 4.0 | 0.00 | 0.00 | 0.00 | 55 | 1006.4 |
| 20260510000000 | 79 | 103 | 3.0 | 4.0 | 0.00 | 0.00 | 0.00 | 53 | 1006.4 |
| 20260509235500 | 79 | 120 | 3.0 | 4.0 | 0.00 | 0.00 | 0.00 | 51 | 1006.4 |
| 20260509235000 | 79 | 119 | 3.0 | 4.0 | 0.00 | 0.00 | 0.00 | 53 | 1006.5 |
| 20260509234500 | 80 | 163 | 3.0 | 4.0 | 0.00 | 0.00 | 0.00 | 52 | 1006.5 |
| 20260509234000 | 80 | 184 | 3.0 | 6.0 | 0.00 | 0.00 | 0.00 | 53 | 1006.4 |
| 20260509233500 | 80 | 133 | 2.0 | 6.0 | 0.00 | 0.00 | 0.00 | 52 | 1006.5 |
| 20260509233000 | 80 | 150 | 4.0 | 5.0 | 0.00 | 0.00 | 0.00 | 53 | 1006.5 |
| 20260509232500 | 80 | 133 | 4.0 | 7.0 | 0.00 | 0.00 | 0.00 | 51 | 1006.4 |
| 20260509232000 | 80 | 128 | 4.0 | 7.0 | 0.00 | 0.00 | 0.00 | 50 | 1006.4 |
| 20260509231500 | 81 | 135 | 7.0 | 7.0 | 0.00 | 0.00 | 0.00 | 50 | 1006.5 |
| 20260509231000 | 81 | 126 | 6.0 | 7.0 | 0.00 | 0.00 | 0.00 | 50 | 1006.5 |
| 20260509230500 | 81 | 122 | 3.0 | 5.0 | 0.00 | 0.00 | 0.00 | 50 | 1006.6 |
| 20260509230000 | 82 | 152 | 2.0 | 4.0 | 0.00 | 0.00 | 0.00 | 47 | 1006.6 |
| 20260509225500 | 81 | 161 | 2.0 | 7.0 | 0.00 | 0.00 | 0.00 | 46 | 1006.5 |
| 20260509225000 | 81 | 110 | 4.0 | 7.0 | 0.00 | 0.00 | 0.00 | 45 | 1006.6 |
| 20260509224500 | 83 | 148 | 1.0 | 3.0 | 0.00 | 0.00 | 0.00 | 46 | 1006.6 |
| 20260509224000 | 82 | 261 | 2.0 | 5.0 | 0.00 | 0.00 | 0.00 | 47 | 1006.6 |
| 20260509223500 | 82 | 33 | 2.0 | 5.0 | 0.00 | 0.00 | 0.00 | 48 | 1006.5 |
| 20260509223000 | 82 | 159 | 4.0 | 5.0 | 0.00 | 0.00 | 0.00 | 48 | 1006.5 |
| 20260509222500 | 82 | 82 | 2.0 | 4.0 | 0.00 | 0.00 | 0.00 | 49 | 1006.5 |
| 20260509222000 | 82 | 77 | 2.0 | 4.0 | 0.00 | 0.00 | 0.00 | 50 | 1006.5 |
| 20260509221500 | 82 | 11 | 2.0 | 4.0 | 0.00 | 0.00 | 0.00 | 45 | 1006.4 |
| 20260509221000 | 82 | 353 | 3.0 | 4.0 | 0.00 | 0.00 | 0.00 | 47 | 1006.4 |
| 20260509220500 | 82 | 12 | 3.0 | 4.0 | 0.00 | 0.00 | 0.00 | 45 | 1006.4 |
| 20260509220000 | 82 | 25 | 2.0 | 3.0 | 0.00 | 0.00 | 0.00 | 43 | 1006.4 |
| 20260509215500 | 82 | 252 | 2.0 | 3.0 | 0.00 | 0.00 | 0.00 | 45 | 1006.4 |
| 20260509215000 | 82 | 286 | 2.0 | 6.0 | 0.00 | 0.00 | 0.00 | 49 | 1006.5 |
| 20260509214500 | 81 | 29 | 2.0 | 6.0 | 0.00 | 0.00 | 0.00 | 45 | 1006.5 |
| 20260509214000 | 81 | 22 | 6.0 | 6.0 | 0.00 | 0.00 | 0.00 | 47 | 1006.4 |
| 20260509213500 | 81 | 87 | 1.0 | 5.0 | 0.00 | 0.00 | 0.00 | 48 | 1006.4 |
| 20260509213000 | 81 | 312 | 2.0 | 4.0 | 0.00 | 0.00 | 0.00 | 49 | 1006.4 |
| 20260509212501 | 81 | 359 | 3.0 | 6.0 | 0.00 | 0.00 | 0.00 | 53 | 1006.5 |
| 20260509212000 | 80 | 105 | 3.0 | 6.0 | 0.00 | 0.00 | 0.00 | 49 | 1006.4 |
| 20260509211500 | 80 | 96 | 6.0 | 6.0 | 0.00 | 0.00 | 0.00 | 51 | 1006.4 |
| 20260509211000 | 80 | 55 | 2.0 | 5.0 | 0.00 | 0.00 | 0.00 | 49 | 1006.5 |
| 20260509210500 | 80 | 111 | 3.0 | 5.0 | 0.00 | 0.00 | 0.00 | 47 | 1006.7 |
| 20260509210000 | 81 | 253 | 2.0 | 6.0 | 0.00 | 0.00 | 0.00 | 48 | 1006.8 |
| 20260509205500 | 81 | 191 | 2.0 | 7.0 | 0.00 | 0.00 | 0.00 | 48 | 1006.9 |
| 20260509205000 | 81 | 139 | 4.0 | 7.0 | 0.00 | 0.00 | 0.00 | 47 | 1007.0 |
| 20260509204500 | 82 | 108 | 4.0 | 5.0 | 0.00 | 0.00 | 0.00 | 50 | 1007.0 |
| 20260509204000 | 81 | 189 | 2.0 | 6.0 | 0.00 | 0.00 | 0.00 | 46 | 1007.0 |
| 20260509203500 | 81 | 109 | 4.0 | 7.0 | 0.00 | 0.00 | 0.00 | 48 | 1007.0 |
| 20260509203000 | 81 | 40 | 0.0 | 7.0 | 0.00 | 0.00 | 0.00 | 48 | 1007.0 |
| 20260509202500 | 81 | 133 | 3.0 | 13.0 | 0.00 | 0.00 | 0.00 | 48 | 1007.1 |
| 20260509202000 | 81 | 132 | 4.0 | 13.0 | 0.00 | 0.00 | 0.00 | 51 | 1007.2 |
| 20260509201500 | 81 | 57 | 3.0 | 6.0 | 0.00 | 0.00 | 0.00 | 46 | 1007.2 |
| 20260509201000 | 81 | 55 | 1.0 | 7.0 | 0.00 | 0.00 | 0.00 | 51 | 1007.2 |
| 20260509200500 | 81 | 168 | 5.0 | 7.0 | 0.00 | 0.00 | 0.00 | 50 | 1007.2 |
| 20260509200000 | 81 | 92 | 3.0 | 6.0 | 0.00 | 0.00 | 0.00 | 52 | 1007.2 |
| 20260509195500 | 81 | 111 | 4.0 | 7.0 | 0.00 | 0.00 | 0.00 | 47 | 1007.2 |
| 20260509195000 | 80 | 120 | 3.0 | 7.0 | 0.00 | 0.00 | 0.00 | 54 | 1007.3 |
| 20260509194500 | 80 | 68 | 2.0 | 9.0 | 0.00 | 0.00 | 0.00 | 57 | 1007.4 |
| 20260509194000 | 80 | 149 | 3.0 | 9.0 | 0.00 | 0.00 | 0.00 | 51 | 1007.4 |
| 20260509193500 | 80 | 77 | 2.0 | 8.0 | 0.00 | 0.00 | 0.00 | 52 | 1007.4 |
| 20260509193000 | 80 | 128 | 3.0 | 8.0 | 0.00 | 0.00 | 0.00 | 54 | 1007.4 |
| 20260509192500 | 79 | 175 | 6.0 | 8.0 | 0.00 | 0.00 | 0.00 | 57 | 1007.5 |
| 20260509192000 | 80 | 153 | 3.0 | 6.0 | 0.00 | 0.00 | 0.00 | 52 | 1007.6 |
| 20260509191500 | 81 | 124 | 4.0 | 5.0 | 0.00 | 0.00 | 0.00 | 51 | 1007.7 |
| 20260509191000 | 80 | 59 | 1.0 | 7.0 | 0.00 | 0.00 | 0.00 | 55 | 1007.7 |
| 20260509190500 | 80 | 62 | 4.0 | 9.0 | 0.00 | 0.00 | 0.00 | 58 | 1007.6 |
| 20260509190000 | 79 | 30 | 6.0 | 9.0 | 0.00 | 0.00 | 0.00 | 55 | 1007.6 |
| 20260509185500 | 79 | 60 | 2.0 | 8.0 | 0.00 | 0.00 | 0.00 | 54 | 1007.5 |
| 20260509185000 | 79 | 69 | 4.0 | 10.0 | 0.00 | 0.00 | 0.00 | 58 | 1007.4 |
| 20260509184500 | 78 | 143 | 6.0 | 10.0 | 0.00 | 0.00 | 0.00 | 57 | 1007.5 |
| 20260509184000 | 79 | 42 | 2.0 | 5.0 | 0.00 | 0.00 | 0.00 | 56 | 1007.6 |
| 20260509183500 | 79 | 3 | 3.0 | 5.0 | 0.00 | 0.00 | 0.00 | 55 | 1007.6 |
| 20260509183000 | 79 | 139 | 3.0 | 7.0 | 0.00 | 0.00 | 0.00 | 54 | 1007.7 |
| 20260509182500 | 79 | 17 | 1.0 | 7.0 | 0.00 | 0.00 | 0.00 | 54 | 1007.7 |
| 20260509182000 | 80 | 101 | 3.0 | 5.0 | 0.00 | 0.00 | 0.00 | 54 | 1007.7 |
| 20260509181500 | 79 | 212 | 1.0 | 5.0 | 0.00 | 0.00 | 0.00 | 54 | 1007.7 |
| 20260509181000 | 79 | 199 | 2.0 | 5.0 | 0.00 | 0.00 | 0.00 | 53 | 1007.7 |
| 20260509180500 | 78 | 215 | 2.0 | 7.0 | 0.00 | 0.00 | 0.00 | 54 | 1007.7 |
| 20260509180000 | 78 | 69 | 3.0 | 7.0 | 0.00 | 0.00 | 0.00 | 52 | 1007.7 |
| 20260509175500 | 78 | 67 | 3.0 | 9.0 | 0.00 | 0.00 | 0.00 | 55 | 1007.7 |
| 20260509175000 | 79 | 82 | 6.0 | 9.0 | 0.00 | 0.00 | 0.00 | 54 | 1007.7 |
| 20260509174500 | 79 | 163 | 3.0 | 9.0 | 0.00 | 0.00 | 0.00 | 55 | 1007.8 |
| 20260509174000 | 78 | 126 | 3.0 | 9.0 | 0.00 | 0.00 | 0.00 | 58 | 1007.8 |
| 20260509173500 | 78 | 109 | 5.0 | 9.0 | 0.00 | 0.00 | 0.00 | 53 | 1007.9 |
| 20260509173000 | 78 | 146 | 4.0 | 9.0 | 0.00 | 0.00 | 0.00 | 55 | 1007.9 |
| 20260509172500 | 78 | 85 | 4.0 | 7.0 | 0.00 | 0.00 | 0.00 | 55 | 1007.9 |
| 20260509172000 | 78 | 77 | 2.0 | 6.0 | 0.00 | 0.00 | 0.00 | 62 | 1007.9 |
| 20260509171500 | 77 | 207 | 2.0 | 6.0 | 0.00 | 0.00 | 0.00 | 57 | 1008.0 |
| 20260509171000 | 78 | 19 | 3.0 | 6.0 | 0.00 | 0.00 | 0.00 | 59 | 1008.0 |
| 20260509170500 | 78 | 58 | 3.0 | 6.0 | 0.00 | 0.00 | 0.00 | 59 | 1008.0 |
| 20260509170000 | 77 | 271 | 2.0 | 6.0 | 0.00 | 0.00 | 0.00 | 58 | 1008.0 |
| 20260509165500 | 77 | 212 | 6.0 | 6.0 | 0.00 | 0.00 | 0.00 | 60 | 1008.0 |
| 20260509165000 | 76 | 250 | 2.0 | 6.0 | 0.00 | 0.00 | 0.00 | 63 | 1008.0 |
| 20260509164500 | 77 | 283 | 1.0 | 6.0 | 0.00 | 0.00 | 0.00 | 61 | 1008.0 |
| 20260509164000 | 77 | 325 | 6.0 | 6.0 | 0.00 | 0.00 | 0.00 | 63 | 1008.0 |
| 20260509163500 | 76 | 274 | 2.0 | 7.0 | 0.00 | 0.00 | 0.00 | 60 | 1008.0 |
| 20260509163000 | 76 | 251 | 2.0 | 7.0 | 0.00 | 0.00 | 0.00 | 60 | 1008.0 |
| 20260509162500 | 77 | 197 | 4.0 | 5.0 | 0.00 | 0.00 | 0.00 | 58 | 1008.1 |
| 20260509162000 | 76 | 153 | 1.0 | 6.0 | 0.00 | 0.00 | 0.00 | 59 | 1008.0 |
| 20260509161500 | 75 | 337 | 2.0 | 6.0 | 0.00 | 0.00 | 0.00 | 66 | 1007.9 |
| 20260509161000 | 76 | 352 | 6.0 | 6.0 | 0.00 | 0.00 | 0.00 | 62 | 1007.8 |
| 20260509160500 | 75 | 298 | 1.0 | 6.0 | 0.00 | 0.00 | 0.00 | 61 | 1007.7 |
| 20260509160000 | 75 | 59 | 4.0 | 7.0 | 0.00 | 0.00 | 0.00 | 65 | 1007.6 |
| 20260509155500 | 74 | 311 | 3.0 | 7.0 | 0.00 | 0.00 | 0.00 | 61 | 1007.6 |
| 20260509155000 | 74 | 359 | 2.0 | 7.0 | 0.00 | 0.00 | 0.00 | 64 | 1007.6 |
| 20260509154500 | 74 | 18 | 6.0 | 8.0 | 0.00 | 0.00 | 0.00 | 62 | 1007.6 |
| 20260509154000 | 74 | 347 | 2.0 | 8.0 | 0.00 | 0.00 | 0.00 | 63 | 1007.6 |
| 20260509153500 | 74 | 62 | 3.0 | 6.0 | 0.00 | 0.00 | 0.00 | 65 | 1007.5 |
| 20260509153000 | 74 | 70 | 2.0 | 6.0 | 0.00 | 0.00 | 0.00 | 66 | 1007.5 |
| 20260509152500 | 73 | 328 | 2.0 | 7.0 | 0.00 | 0.00 | 0.00 | 68 | 1007.5 |
| 20260509152000 | 73 | 327 | 6.0 | 7.0 | 0.00 | 0.00 | 0.00 | 67 | 1007.5 |
| 20260509151500 | 73 | 324 | 4.0 | 7.0 | 0.00 | 0.00 | 0.00 | 65 | 1007.5 |
| 20260509151000 | 72 | 336 | 2.0 | 5.0 | 0.00 | 0.00 | 0.00 | 66 | 1007.5 |
| 20260509150500 | 72 | 284 | 1.0 | 5.0 | 0.00 | 0.00 | 0.00 | 69 | 1007.4 |
| 20260509150000 | 72 | 259 | 2.0 | 5.0 | 0.00 | 0.00 | 0.00 | 68 | 1007.4 |
| 20260509145500 | 71 | 252 | 4.0 | 5.0 | 0.00 | 0.00 | 0.00 | 70 | 1007.4 |
| 20260509145000 | 71 | 285 | 1.0 | 5.0 | 0.00 | 0.00 | 0.00 | 68 | 1007.5 |
| 20260509144500 | 72 | 342 | 1.0 | 4.0 | 0.00 | 0.00 | 0.00 | 68 | 1007.5 |
| 20260509144000 | 71 | 129 | 1.0 | 4.0 | 0.00 | 0.00 | 0.00 | 69 | 1007.5 |
| 20260509143500 | 71 | 56 | 1.0 | 3.0 | 0.00 | 0.00 | 0.00 | 69 | 1007.4 |
| 20260509143000 | 71 | 285 | 2.0 | 4.0 | 0.00 | 0.00 | 0.00 | 71 | 1007.3 |
| 20260509142500 | 71 | 280 | 2.0 | 4.0 | 0.00 | 0.00 | 0.00 | 72 | 1007.4 |
| 20260509142000 | 71 | 168 | 1.0 | 3.0 | 0.00 | 0.00 | 0.00 | 71 | 1007.4 |
| 20260509141500 | 70 | 260 | 2.0 | 3.0 | 0.00 | 0.00 | 0.00 | 72 | 1007.3 |
| 20260509141001 | 70 | 215 | 1.0 | 3.0 | 0.00 | 0.00 | 0.00 | 74 | 1007.4 |
| 20260509140500 | 69 | 269 | 0.0 | 3.0 | 0.00 | 0.00 | 0.00 | 75 | 1007.4 |
| 20260509140000 | 68 | 229 | 2.0 | 4.0 | 0.00 | 0.00 | 0.00 | 74 | 1007.4 |
| 20260509135501 | 68 | 283 | 2.0 | 4.0 | 0.00 | 0.00 | 0.00 | 76 | 1007.3 |
| 20260509135000 | 68 | 204 | 2.0 | 3.0 | 0.00 | 0.00 | 0.00 | 77 | 1007.3 |
| 20260509134500 | 68 | 208 | 1.0 | 4.0 | 0.00 | 0.00 | 0.00 | 77 | 1007.2 |
| 20260509134000 | 67 | 194 | 3.0 | 4.0 | 0.00 | 0.00 | 0.00 | 79 | 1007.3 |
| 20260509133500 | 67 | 163 | 2.0 | 4.0 | 0.00 | 0.00 | 0.00 | 79 | 1007.3 |
| 20260509133000 | 67 | 221 | 3.0 | 4.0 | 0.00 | 0.00 | 0.00 | 79 | 1007.2 |
| 20260509132500 | 67 | 154 | 2.0 | 5.0 | 0.00 | 0.00 | 0.00 | 80 | 1007.2 |
| 20260509132000 | 66 | 146 | 2.0 | 5.0 | 0.00 | 0.00 | 0.00 | 81 | 1007.1 |
| 20260509131500 | 66 | 185 | 3.0 | 5.0 | 0.00 | 0.00 | 0.00 | 83 | 1007.1 |
| 20260509131000 | 66 | 183 | 3.0 | 4.0 | 0.00 | 0.00 | 0.00 | 83 | 1007.1 |
| 20260509130500 | 65 | 178 | 2.0 | 4.0 | 0.00 | 0.00 | 0.00 | 83 | 1007.1 |
| 20260509130001 | 65 | 202 | 3.0 | 4.0 | 0.00 | 0.00 | 0.00 | 86 | 1007.0 |
| 20260509125500 | 64 | 210 | 2.0 | 3.0 | 0.00 | 0.00 | 0.00 | 85 | 1007.0 |
| 20260509125000 | 64 | 178 | 2.0 | 3.0 | 0.00 | 0.00 | 0.00 | 87 | 1006.8 |
| 20260509124500 | 63 | 142 | 1.0 | 2.0 | 0.00 | 0.00 | 0.00 | 90 | 1006.7 |
| 20260509124000 | 63 | 150 | 1.0 | 3.0 | 0.00 | 0.00 | 0.00 | 91 | 1006.7 |
| 20260509123500 | 62 | 84 | 1.0 | 5.0 | 0.00 | 0.00 | 0.00 | 92 | 1006.7 |
| 20260509123000 | 62 | 187 | 3.0 | 6.0 | 0.00 | 0.00 | 0.00 | 92 | 1006.6 |
| 20260509122500 | 61 | 156 | 3.0 | 6.0 | 0.00 | 0.00 | 0.00 | 92 | 1006.5 |
| 20260509122000 | 61 | 188 | 5.0 | 7.0 | 0.00 | 0.00 | 0.00 | 92 | 1006.5 |
| 20260509121500 | 60 | 203 | 4.0 | 7.0 | 0.00 | 0.00 | 0.00 | 92 | 1006.5 |
| 20260509121000 | 60 | 207 | 3.0 | 7.0 | 0.00 | 0.00 | 0.00 | 92 | 1006.4 |
| 20260509120500 | 60 | 198 | 4.0 | 4.0 | 0.00 | 0.00 | 0.00 | 92 | 1006.3 |
| 20260509120000 | 60 | 172 | 1.0 | 4.0 | 0.00 | 0.00 | 0.00 | 92 | 1006.2 |
| 20260509115500 | 59 | 183 | 3.0 | 4.0 | 0.00 | 0.00 | 0.00 | 92 | 1006.1 |
| 20260509115000 | 59 | 195 | 4.0 | 5.0 | 0.00 | 0.00 | 0.00 | 92 | 1006.1 |
| 20260509114500 | 59 | 190 | 2.0 | 6.0 | 0.00 | 0.00 | 0.00 | 92 | 1006.1 |
| 20260509114000 | 58 | 192 | 3.0 | 8.0 | 0.00 | 0.00 | 0.00 | 92 | 1006.0 |
| 20260509113500 | 58 | 199 | 4.0 | 8.0 | 0.00 | 0.00 | 0.00 | 92 | 1005.9 |
| 20260509113000 | 58 | 175 | 3.0 | 6.0 | 0.00 | 0.00 | 0.00 | 92 | 1005.8 |
| 20260509112500 | 58 | 180 | 4.0 | 6.0 | 0.00 | 0.00 | 0.00 | 92 | 1005.7 |
| 20260509112000 | 58 | 189 | 5.0 | 6.0 | 0.00 | 0.00 | 0.00 | 92 | 1005.7 |
| 20260509111500 | 58 | 185 | 4.0 | 4.0 | 0.00 | 0.00 | 0.00 | 92 | 1005.5 |
| 20260509111000 | 58 | 189 | 2.0 | 2.0 | 0.00 | 0.00 | 0.00 | 92 | 1005.1 |
| 20260509110500 | 58 | 141 | 1.0 | 1.0 | 0.00 | 0.00 | 0.00 | 92 | 1005.0 |
| 20260509110000 | 58 | 96 | 0.0 | 2.0 | 0.00 | 0.00 | 0.00 | 92 | 1004.9 |
| 20260509105500 | 58 | 62 | 1.0 | 2.0 | 0.00 | 0.00 | 0.00 | 91 | 1004.8 |
| 20260509105000 | 58 | 85 | 1.0 | 1.0 | 0.00 | 0.00 | 0.00 | 91 | 1004.8 |
| 20260509104500 | 58 | 92 | 1.0 | 2.0 | 0.00 | 0.00 | 0.00 | 92 | 1004.7 |
| 20260509104000 | 59 | 62 | 1.0 | 2.0 | 0.00 | 0.00 | 0.00 | 92 | 1004.7 |
| 20260509103500 | 59 | 95 | 1.0 | 1.0 | 0.00 | 0.00 | 0.00 | 91 | 1004.7 |
| 20260509103000 | 59 | 168 | 0.0 | 3.0 | 0.00 | 0.00 | 0.00 | 91 | 1004.8 |
| 20260509102500 | 59 | 12 | 1.0 | 3.0 | 0.00 | 0.00 | 0.00 | 91 | 1004.8 |
| 20260509102000 | 59 | 9 | 3.0 | 4.0 | 0.00 | 0.00 | 0.00 | 92 | 1004.8 |
| 20260509101500 | 59 | 4 | 2.0 | 4.0 | 0.00 | 0.00 | 0.00 | 91 | 1004.8 |
| 20260509101000 | 59 | 16 | 3.0 | 4.0 | 0.00 | 0.00 | 0.00 | 91 | 1004.7 |
| 20260509100500 | 59 | 359 | 3.0 | 4.0 | 0.00 | 0.00 | 0.00 | 91 | 1004.6 |
| 20260509100001 | 59 | 358 | 2.0 | 3.0 | 0.00 | 0.00 | 0.00 | 91 | 1004.5 |
| 20260509095500 | 59 | 1 | 3.0 | 4.0 | 0.00 | 0.00 | 0.00 | 91 | 1004.4 |
| 20260509095000 | 59 | 349 | 2.0 | 4.0 | 0.00 | 0.00 | 0.00 | 91 | 1004.5 |
| 20260509094500 | 59 | 342 | 3.0 | 3.0 | 0.00 | 0.00 | 0.00 | 91 | 1004.4 |
| 20260509094000 | 59 | 349 | 2.0 | 3.0 | 0.00 | 0.00 | 0.00 | 90 | 1004.5 |